Showing default

OPS 9323 (IDSCS 10), 2650

Orbit data source: Space-Track

OPS 9323 (IDSCS 10), 2650 is a payload satellite owned by USAF SSD (US) in GEO that was launched on Wed, 18 Jan 1967 UTC via a TITAN IIIC launch vehicle from the Air Force Eastern Test Range (AFETR). Payload-class satellites include a variety of spacecraft equipped with specific instruments for various scientific and technological missions. These include communications satellites like Starlink; space stations such as the ISS; scientific satellites like the Hubble; Earth observation satellites from companies like Planet Labs, Umbra, and HawkEye 360; GPS; miniature CubeSats for education and research; and military/defense satellites.

Not visible in the next 10 days
Identifier
2650, 1967-003C
Orbit
GEO
Last TLE update
1 day ago
Origin
Manufacturer
Philco-Ford WDL
Mission
Non-operational Defense Communications
Bus & Motor
IDCSP, Unknown motor
Mass
45 kg wet, 45 kg dry
Launch date (UTC)
1967-01-18 (58 years ago)
Launch vehicle
TITAN IIIC
Launch site
Air Force Eastern Test Range (AFETR)
Object type
Payload
Rocket body
Debris
Shape & HBR
Ico Poly, 0.9 m
Radar Cross Section
0.926 m², Medium (>0.1 m² and < 1m²)

Expand to show TLE details & history

TLE from 1 day ago
0 OPS 9323 (IDSCS 10)
1 02650U 67003C   25180.92190855 -.00000070  00000-0  00000-0 0  9992
2 02650   7.6311  47.9363 0034888 100.9603  83.1046  1.08221528136635
Epoch: 2025-06-29T22:07Z
TLE epoch observation values (Epoch: 2025-06-29T22:07:32.898Z)
Latitude
-0.59822°
Longitude
-17.74889°
Altitude
33,679.48 km
Speed
3.155 km/s
True Right ascension
15h 29m 30s
True Declination
0° 35' 51"
Sunlit
Object was in daylight at epoch
Visualization orbit readout
Latitude
5.43101°
Longitude
-157.20437°
Altitude
33,614.965 km
Speed
3.16 km/s
Apparent Right ascension
06h 31m 55s
Apparent Declination
0° 23' 07"
Sunlit
Object is in daylight
Visualization observer readout
Local Sidereal Time
21:35:08
Azimuth
58.336° ENE
Elevation
-32.616°
Doppler factor
1
Orbital elements
Apogee altitude
33,836.467 km
Perigee altitude
33,556.841 km
Semi-major axis
40,074.791 km
Eccentricity
0.00349
Inclination
7.6311°
RAAN
47.9363°
Arg. of periapsis
100.9603°
True anomaly
Unknown
Mean anomaly
83.1046°
Eccentric anomaly
Unknown
Mean motion
0.27054 °/min
Orbital period
1,330.66 mins
BSTAR
0
Loading historical data...
2650 neighbors
Loading maneuver chart data...
Loading SW <> Apogee altitude chart data...
Loading historical data...
Loading historical data...
Loading historical data...
Loading historical data...
Loading historical data...
Loading historical data...
Loading historical data...

OPS 9323 (IDSCS 10) Visibility

Observer location: undefined°, undefined°

OPS 9323 (IDSCS 10) is likely not visible in the next few days
Span
Click to sort rows by Start time (UTC) header in descending order
Start Az.
Max El. time (UTC)
Max El. Az.
Max El.
End time (UTC)
End Az.
|